CDT,Max TemperatureF,Mean TemperatureF,Min TemperatureF,Max Dew PointF,MeanDew PointF,Min DewpointF,Max Humidity, Mean Humidity, Min Humidity, Max Sea Level PressureIn, Mean Sea Level PressureIn, Min Sea Level PressureIn, Max VisibilityMiles, Mean VisibilityMiles, Min VisibilityMiles, Max Wind SpeedMPH, Mean Wind SpeedMPH, Max Gust SpeedMPH,PrecipitationIn, CloudCover, Events, WindDirDegrees
2013-5-1,81,68,56,59,56,53,90,66,38,30.12,30.06,29.97,10,10,10,15,9,17,0.00,0,,175
2013-5-2,77,62,46,60,55,47,100,77,50,30.16,30.11,30.07,10,7,0,22,9,23,0.69,5,Rain-Thunderstorm,47
2013-5-3,68,54,42,63,52,42,100,92,78,30.08,29.96,29.85,10,5,0,30,16,46,0.59,6,Fog-Rain-Thunderstorm,91
2013-5-4,64,58,54,58,55,53,96,86,70,30.03,29.94,29.86,10,9,2,20,14,24,0.09,6,Rain,134
2013-5-5,70,60,52,56,53,49,100,84,50,30.03,29.98,29.92,10,10,4,18,8,,0.00,5,Rain,47
2013-5-6,72,63,54,55,50,47,87,65,41,30.01,29.97,29.94,10,10,10,16,10,,0.00,6,,47
2013-5-7,79,66,52,53,45,40,75,51,28,30.04,30.00,29.97,10,10,10,10,6,,0.00,2,,39
2013-5-8,79,66,54,55,48,43,84,53,28,30.04,29.99,29.96,10,10,10,10,3,,0.00,1,Rain,216
2013-5-9,66,62,59,63,60,54,100,90,65,30.00,29.91,29.83,10,8,2,20,9,,0.54,5,Rain,188
2013-5-10,63,55,48,59,52,47,100,93,82,30.00,29.91,29.82,10,6,0,16,11,,0.00,8,Fog-Rain,330
2013-5-11,63,55,43,52,41,24,93,66,27,30.11,29.99,29.93,10,10,6,30,11,38,0.00,5,,283
2013-5-12,57,46,36,31,27,24,76,47,28,30.20,30.16,30.12,10,10,10,22,12,29,0.00,0,,302
2013-5-13,68,53,38,42,32,26,79,46,22,30.22,30.14,30.05,10,10,10,13,7,17,0.00,1,,250
2013-5-14,88,70,52,60,52,39,69,51,36,30.03,29.83,29.72,10,10,10,22,16,26,0.00,0,,217
2013-5-15,84,76,70,60,56,53,65,50,43,29.84,29.80,29.74,10,10,10,21,14,30,0.00,1,,278
2013-5-16,82,72,63,60,54,49,76,53,34,29.94,29.89,29.83,10,10,10,16,6,,0.00,2,Rain-Thunderstorm,281
2013-5-17,79,69,59,63,60,56,90,72,45,30.00,29.96,29.94,10,10,7,16,8,21,0.00,2,,154
2013-5-18,81,71,61,64,62,61,97,76,49,30.06,29.98,29.91,10,7,2,13,7,16,0.00,4,,151
2013-5-19,88,74,61,72,66,61,97,74,50,29.95,29.84,29.73,10,8,2,23,11,31,0.00,1,,166
2013-5-20,88,75,64,67,63,57,94,71,36,29.84,29.77,29.70,10,7,2,30,19,39,0.54,4,Rain-Thunderstorm,222
2013-5-21,79,70,61,67,63,61,97,81,60,29.83,29.74,29.66,10,8,2,21,17,28,0.36,4,Rain-Thunderstorm,205
2013-5-22,72,66,59,65,61,54,100,84,53,29.81,29.70,29.64,10,8,2,20,12,25,0.16,6,Rain,234
2013-5-23,59,54,43,57,52,41,100,86,72,30.29,30.02,29.80,10,8,1,25,14,29,0.01,7,Rain,350
2013-5-24,68,52,37,41,37,35,89,59,29,30.44,30.37,30.30,10,10,10,14,9,,0.00,0,,54
2013-5-25,54,50,45,49,42,34,100,79,45,30.43,30.33,30.28,10,7,2,17,10,,0.28,5,Rain,100
2013-5-26,63,56,50,58,53,46,100,87,77,30.30,30.18,30.06,10,8,1,25,13,26,0.28,7,Rain-Thunderstorm,107
2013-5-27,70,63,56,66,60,55,100,96,84,30.13,29.98,29.82,10,5,1,22,14,23,1.75,6,Rain-Thunderstorm,151
2013-5-28,77,70,63,71,66,62,96,88,76,29.89,29.83,29.77,10,9,2,29,16,39,0.16,3,Rain-Thunderstorm,205
2013-5-29,84,73,63,70,65,61,97,80,57,29.99,29.91,29.86,10,8,0,29,17,38,0.33,3,Fog-Rain-Thunderstorm,215
2013-5-30,83,72,63,72,66,61,100,81,62,29.97,29.88,29.78,10,9,1,31,18,47,0.44,4,Rain-Thunderstorm,204
2013-5-31,75,69,63,72,66,62,100,89,73,29.91,29.84,29.71,10,8,1,24,13,31,0.65,5,Rain-Thunderstorm,195